Location: *
(46.4000°N, 12.6667°E)
Time: 03:45:25
(UTC+00:00)

ISS - Pass Details

Date: 08 December 2021
Orbit: 413 x 422 km, 51.6° (Epoch: 22 January)

Event Time Altitude Azimuth Distance (km) Brightness Sun altitude
Rises 16:55:02 0° 289° (WNW) 2,383 1.0 -15.2°
Reaches altitude 10° 16:57:29 10° 273° (W) 1,512 0.2 -15.6°
Maximum altitude 17:00:04 20° 223° (SW) 1,026 -1.0 -16.1°
Drops below altitude 10° 17:02:39 10° 173° (S) 1,499 -0.9 -16.5°
Enters shadow 17:05:56 -3° 153° (SSE) 2,689 0.2 -17.0°
